CW6739 Weather Reports


Display with metric or nautical units.
time (UTC)temp
F
wind
direction
speed
MPH
gust
MPH
rain 1hr
in
rain 24hr
in
rain mn
in
humidity
%
barometer
mb
20260504081616 46 164 6.0 11.0 0.00 0.00 0.00 72 1017.9
20260504081112 46 135 8.0 8.0 0.00 0.00 0.00 70 1017.6
20260504080609 46 159 2.0 4.0 0.00 0.00 0.00 71 1017.6
20260504080105 46 113 2.0 6.0 0.00 0.00 0.00 71 1017.7
20260504050421 45 156 4.0 5.0 0.00 0.00 0.00 76 1017.9
20260504045918 45 168 5.0 10.0 0.00 0.00 0.00 76 1017.9
20260504045414 45 134 4.0 8.0 0.00 0.00 0.00 76 1017.8
20260504044910 45 150 6.0 10.0 0.00 0.00 0.00 76 1017.9
20260504044408 45 155 4.0 9.0 0.00 0.00 0.00 76 1017.6
20260504043905 45 95 4.0 10.0 0.00 0.00 0.00 75 1017.7
20260504043402 45 12 2.0 7.0 0.00 0.00 0.00 76 1018.0
20260504042900 45 63 0.0 5.0 0.00 0.00 0.00 77 1018.1
20260504042355 45 102 3.0 11.0 0.00 0.00 0.00 76 1017.9
20260504041852 45 212 1.0 15.0 0.00 0.00 0.00 77 1018.0
20260504041348 45 125 2.0 7.0 0.00 0.00 0.00 78 1018.1
20260504040845 45 127 3.0 6.0 0.00 0.00 0.00 78 1018.2
20260504040342 45 180 1.0 10.0 0.00 0.00 0.00 77 1018.4
20260504035838 45 141 5.0 13.0 0.00 0.00 0.00 78 1018.2
20260504035336 45 121 5.0 7.0 0.00 0.00 0.00 78 1018.2
20260504034832 46 47 3.0 7.0 0.00 0.00 0.00 77 1018.3
20260504034330 46 334 4.0 9.0 0.00 0.00 0.00 75 1018.4
20260504033827 46 14 1.0 10.0 0.00 0.00 0.00 75 1018.1
20260504033325 46 155 5.0 6.0 0.00 0.00 0.00 76 1018.3
20260504032821 46 90 3.0 10.0 0.00 0.00 0.00 75 1018.3
20260504032319 46 150 5.0 12.0 0.00 0.00 0.00 77 1018.4
20260504031815 46 137 3.0 8.0 0.00 0.00 0.00 76 1018.4
20260504031313 46 154 5.0 14.0 0.00 0.00 0.00 76 1018.3
20260504030809 46 176 2.0 12.0 0.00 0.00 0.00 75 1018.4
20260504030306 47 38 2.0 7.0 0.00 0.00 0.00 73 1018.7
20260504025802 47 184 2.0 10.0 0.00 0.00 0.00 71 1018.4
20260504025259 48 147 2.0 7.0 0.00 0.00 0.00 70 1018.4
20260504024755 48 151 4.0 10.0 0.00 0.00 0.00 67 1018.5
20260504024252 48 90 0.0 3.0 0.00 0.00 0.00 68 1018.4
20260504023749 48 45 4.0 10.0 0.00 0.00 0.00 66 1018.4
20260504023246 48 50 2.0 7.0 0.00 0.00 0.00 66 1018.4
20260504022742 48 143 2.0 6.0 0.00 0.00 0.00 66 1018.4
20260504022238 48 90 2.0 11.0 0.00 0.00 0.00 65 1018.4
20260504021735 49 72 0.0 12.0 0.00 0.00 0.00 64 1018.6
20260504021232 49 140 3.0 11.0 0.00 0.00 0.00 64 1018.2
20260504020729 49 171 4.0 11.0 0.00 0.00 0.00 62 1018.4
20260504020226 49 34 0.0 15.0 0.00 0.00 0.00 62 1018.3
20260504015722 49 75 4.0 8.0 0.00 0.00 0.00 61 1018.4
20260504015218 50 259 2.0 10.0 0.00 0.00 0.00 61 1018.3
20260504014714 50 29 0.0 9.0 0.00 0.00 0.00 59 1018.5
20260504014211 50 174 4.0 19.0 0.00 0.00 0.00 59 1018.5
20260504013709 50 134 5.0 7.0 0.00 0.00 0.00 58 1018.5
20260504013206 51 139 2.0 6.0 0.00 0.00 0.00 58 1018.6
20260504012703 50 208 2.0 12.0 0.00 0.00 0.00 57 1018.4
20260504012201 51 171 2.0 7.0 0.00 0.00 0.00 57 1018.7
20260504011658 51 0 2.0 5.0 0.00 0.00 0.00 57 1018.7
20260504011154 51 157 4.0 9.0 0.00 0.00 0.00 56 1018.6
20260504010650 51 93 3.0 8.0 0.00 0.00 0.00 56 1018.8
20260504010145 51 151 5.0 10.0 0.00 0.00 0.00 56 1018.8
20260504005643 51 157 5.0 9.0 0.00 0.00 0.00 56 1018.9
20260504005139 51 199 11.0 12.0 0.00 0.00 0.00 55 1018.9
20260504004638 52 154 0.0 6.0 0.00 0.00 0.00 56 1018.7
20260504004134 51 130 4.0 13.0 0.00 0.00 0.00 56 1018.7
20260504003631 51 151 3.0 8.0 0.00 0.00 0.00 55 1018.7
20260504003127 51 137 1.0 9.0 0.00 0.00 0.00 56 1018.7
20260504002624 51 141 7.0 7.0 0.00 0.00 0.00 56 1018.7
20260504002122 51 154 5.0 11.0 0.00 0.00 0.00 56 1018.8
20260504001620 51 19 2.0 7.0 0.00 0.00 0.00 56 1018.9
20260504001115 51 156 5.0 7.0 0.00 0.00 0.00 56 1019.0
20260504000613 51 148 5.0 8.0 0.00 0.00 0.00 56 1018.9
20260504000110 51 297 2.0 12.0 0.00 0.00 0.00 56 1018.9
20260503235608 51 145 1.0 13.0 0.00 0.00 0.00 56 1018.9
20260503235105 51 13 3.0 9.0 0.00 0.00 0.00 55 1019.1
20260503234603 51 63 3.0 8.0 0.00 0.00 0.00 56 1019.1
20260503234100 51 193 3.0 7.0 0.00 0.00 0.00 55 1018.9
20260503233556 51 154 2.0 18.0 0.00 0.00 0.00 55 1019.0
20260503233052 51 90 5.0 12.0 0.00 0.00 0.00 55 1018.8
20260503232550 52 103 5.0 12.0 0.00 0.00 0.00 54 1019.0
20260503232047 52 150 4.0 7.0 0.00 0.00 0.00 54 1019.2
20260503231545 52 153 4.0 14.0 0.00 0.00 0.00 54 1019.1
20260503231041 52 165 5.0 13.0 0.00 0.00 0.00 53 1018.9
20260503230538 52 178 3.0 9.0 0.00 0.00 0.00 53 1018.8
20260503230036 52 212 3.0 10.0 0.00 0.00 0.00 52 1018.9
20260503225532 52 137 4.0 13.0 0.00 0.00 0.00 52 1019.0
20260503225027 53 157 6.0 10.0 0.00 0.00 0.00 52 1019.0
20260503224525 53 70 2.0 17.0 0.00 0.00 0.00 51 1019.0
20260503224023 53 150 6.0 18.0 0.00 0.00 0.00 50 1019.1
20260503223521 54 148 7.0 10.0 0.00 0.00 0.00 49 1019.1
20260503223016 54 160 4.0 6.0 0.00 0.00 0.00 48 1019.3
20260503222514 55 165 3.0 10.0 0.00 0.00 0.00 49 1019.0
20260503222012 54 156 7.0 10.0 0.00 0.00 0.00 48 1019.0
20260503221510 55 182 3.0 12.0 0.00 0.00 0.00 47 1019.1
20260503221007 54 185 7.0 12.0 0.00 0.00 0.00 47 1019.3
20260503220503 54 161 5.0 9.0 0.00 0.00 0.00 47 1019.3
20260503220000 54 117 5.0 7.0 0.00 0.00 0.00 48 1019.2
20260503215457 54 119 6.0 12.0 0.00 0.00 0.00 47 1019.1
20260503214954 53 179 5.0 11.0 0.00 0.00 0.00 50 1019.2
20260503214452 53 168 7.0 13.0 0.00 0.00 0.00 49 1019.1
20260503213949 53 99 5.0 11.0 0.00 0.00 0.00 48 1019.5
20260503213447 54 86 3.0 7.0 0.00 0.00 0.00 49 1019.6
20260503212943 53 145 1.0 9.0 0.00 0.00 0.00 50 1019.6
20260503212441 53 180 3.0 13.0 0.00 0.00 0.00 49 1019.4
20260503211938 53 163 5.0 13.0 0.00 0.00 0.00 49 1019.2
20260503211435 52 158 5.0 10.0 0.00 0.00 0.00 50 1019.5
20260503210930 53 213 3.0 11.0 0.00 0.00 0.00 49 1019.2
20260503210427 53 53 2.0 16.0 0.00 0.00 0.00 49 1019.2
20260503205922 53 158 4.0 9.0 0.00 0.00 0.00 49 1019.3
20260503205420 53 169 4.0 9.0 0.00 0.00 0.00 49 1019.4
20260503204916 54 176 2.0 8.0 0.00 0.00 0.00 49 1019.3
20260503204413 53 181 5.0 15.0 0.00 0.00 0.00 47 1019.3
20260503203910 54 183 3.0 15.0 0.00 0.00 0.00 47 1019.5
20260503203408 53 60 2.0 8.0 0.00 0.00 0.00 49 1019.5
20260503202904 53 186 4.0 13.0 0.00 0.00 0.00 48 1019.5
20260503202403 53 173 5.0 16.0 0.00 0.00 0.00 48 1019.4
20260503201901 53 199 6.0 11.0 0.00 0.00 0.00 47 1019.7
20260503201357 53 194 5.0 12.0 0.00 0.00 0.00 48 1019.4
20260503200855 53 86 8.0 17.0 0.00 0.00 0.00 48 1019.7
20260503200350 54 48 2.0 11.0 0.00 0.00 0.00 47 1019.4
20260503195848 54 160 3.0 9.0 0.00 0.00 0.00 48 1019.5
20260503195344 53 247 2.0 15.0 0.00 0.00 0.00 49 1019.3
20260503194842 53 187 4.0 13.0 0.00 0.00 0.00 49 1019.4
20260503194337 53 172 4.0 9.0 0.00 0.00 0.00 48 1019.6
20260503193834 52 167 3.0 12.0 0.00 0.00 0.00 49 1019.6
20260503193330 53 185 5.0 10.0 0.00 0.00 0.00 49 1019.7
20260503192826 52 151 5.0 17.0 0.00 0.00 0.00 49 1019.8
20260503192322 52 90 2.0 9.0 0.00 0.00 0.00 50 1019.7
20260503191818 51 166 9.0 12.0 0.00 0.00 0.00 51 1019.6
20260503191315 52 170 2.0 12.0 0.00 0.00 0.00 50 1019.4
20260503190812 51 159 3.0 12.0 0.00 0.00 0.00 51 1019.8
20260503190309 52 95 4.0 8.0 0.00 0.00 0.00 51 1019.7
20260503185806 52 152 6.0 9.0 0.00 0.00 0.00 50 1019.7
20260503185304 51 167 3.0 9.0 0.00 0.00 0.00 50 1019.5
20260503184801 51 125 2.0 9.0 0.00 0.00 0.00 49 1019.6
20260503184258 51 63 0.0 14.0 0.00 0.00 0.00 51 1019.6
20260503183754 51 147 2.0 7.0 0.00 0.00 0.00 51 1019.7
20260503183252 51 139 2.0 16.0 0.00 0.00 0.00 51 1019.6
20260503182749 51 63 0.0 9.0 0.00 0.00 0.00 51 1019.7
20260503182248 51 242 0.0 14.0 0.00 0.00 0.00 51 1019.6
20260503181744 50 151 4.0 5.0 0.00 0.00 0.00 51 1019.6
20260503181242 50 30 2.0 7.0 0.00 0.00 0.00 52 1019.8
20260503180738 50 127 0.0 10.0 0.00 0.00 0.00 52 1019.9
20260503180236 50 60 3.0 7.0 0.00 0.00 0.00 52 1019.8
20260503175732 50 141 4.0 7.0 0.00 0.00 0.00 52 1019.7
20260503175231 50 148 4.0 8.0 0.00 0.00 0.00 52 1019.7
20260503174726 50 90 2.0 11.0 0.00 0.00 0.00 53 1020.0
20260503174224 50 68 4.0 11.0 0.00 0.00 0.00 52 1019.8
20260503173719 50 82 2.0 5.0 0.00 0.00 0.00 53 1019.9
20260503173215 50 96 3.0 5.0 0.00 0.00 0.00 53 1020.0
20260503172712 49 57 2.0 9.0 0.00 0.00 0.00 54 1019.8
20260503172209 49 78 0.0 6.0 0.00 0.00 0.00 55 1019.9
20260503171706 48 160 1.0 6.0 0.00 0.00 0.00 55 1019.9
20260503171203 49 126 3.0 8.0 0.00 0.00 0.00 55 1019.9
20260503170700 49 325 0.0 3.0 0.00 0.00 0.00 57 1019.8
20260503170157 49 90 0.0 3.0 0.00 0.00 0.00 57 1019.9
20260503160118 46 169 3.0 5.0 0.00 0.00 0.00 60 1019.9
20260503150548 44 355 1.0 4.0 0.00 0.00 0.00 65 1020.3
20260503130938 45 154 6.0 6.0 0.00 0.00 0.00 61 1020.3
20260503130436 45 275 2.0 11.0 0.00 0.00 0.00 61 1020.5
20260503110326 45 277 0.0 9.0 0.00 0.00 0.00 62 1021.4
20260503100252 44 331 3.0 12.0 0.00 0.00 0.00 64 1020.8